CamptonHillsWeather.com

Find the Weather for any City, State  
or Zipcode, or Country:

Campton Hills, IL Weather
Local Radar

Local Radar

Graphs, Details
Graphs and Gauges
Detailed Weather
Detailed Reports
Ajax Version (old)
Central Kane Co Summary
Davis Current Weather Graphs
Davis 24 Hour Weather History

CW3778 Data

Weather Underground
Maps
Temperature
Heat Index
Windchill
Humidity
Radar
Dew Point
Wind
Visibility
Visible Satellite
Satellite
Fronts
Snow Depth
Jet Stream
Flight Rules
Forecast Maps
Temperature Forecast
Maximum Temperature Forecast
Minimum Temperature Forecast
Dewpoint Forecast
Prevalent Weather
12Hr Probability of Precip.
Sky Cover
Health Maps
UV Forecast
Air Quality
Peak Air Quality Index
Weather Station
Davis Instruments Vantage Pro
Current Conditions [Select Refresh to Update]

Updated: 2:44pm on 4/28/15

(location)
Currently:
63.9F

Clear
Clear

High: 64.1 F< 
(2:24pm
Low: 34.4 F 
(5:24am)
Wind: N 2 mph
Light Air
Gust: 5 mph
Today's High Wind: 10 mph (2:33pm)
Humidity: 47%
Pressure: 30.06 in  (Falling
Pressure Rate: -0.029 in/hr
Dew Point: 43.3F
Wind Chill: 63.9 F
Heat Index (feels like): 64.4 F
Comfort Level: Comfortable
Temperature Rate:  1.26F/hr
 
5 Day Forecast
 
Wed Thu Fri Sat Sun
Clear Clear Clear Clear Clear
Chance T-storms Mostly Cloudy Partly Cloudy Mostly Cloudy Chance T-storms
65 58 67 73 76
39 37 48 54 58

Records and Normals
 
Temperature Forecast Normal Record
High 65 66 80
(2004)
Low 39 42 28
(1998)
 
Links
 
 
Weather Advisories
No Advisories
Full Advisory Text...
Weather Map

Web Cam

Almanac
 
Sunrise:  
5:53am
Moonrise: 
2:47pm

Moon Phase:
67%

Sunset: 
7:47pm
Moonset:  
3:12am
 Star Chart...
Rainfall Totals
Hourly Rain 0.00 in
Daily Rain: 0.00 in
Monthly Rain: 3.87 in
Yearly Rain: 5.85 in
Normal Rain, month to date: 4.24 in
Normal Rain, year to date: 6.57 in
Link to Village of Campton Hills Map

Link to Counties of Illinois Map

Local Weather Exchange Network
Station ID City 
(Click for Map Location)
Neighborhood 
(Click for History)
Last Update (Date & Time) Temperature
 ()
Dew
Point ()
Humidity 
(%)
Wind 
(mph)
from the Wind Gust 
(mph) 
Pressure(in) Hourly
Rain(in)
MD5528 Wasco APRSWXNET 04/28 14:11:00 63.0 39.0 41 3 NE 0 30.04 0.00
KILSTCHA10 St. Charles Hunt Club 04/28 14:39:50 64.4 25.0 22 6 NE 7 29.57 0.00
KILWAYNE4 Wayne Hampton Course 04/28 14:35:51 65.7 46.0 48 0 North 0 30.14 0.00
KILSAINT7 Saint Charles Silver Glen 04/28 14:39:30 61.9 38.0 41 0 NNE 2 29.62 0.00
KILSOUTH6 South Elgin Thornwood 04/28 14:40:08 65.7 43.0 44 5 North 6 28.13 0.00
KILSAINT9 Saint Charles Fox Chase 04/28 14:40:00 65.3 38.0 37 1 South 2 30.03 0.00
KILGENEV6 Geneva Dover Ridge 04/28 14:40:14 62.2 41.0 46 5 North 5 30.03 0.00
MUR354 Geneva MesoWest 04/28 13:55:00 56.0 0.0 0 3 NNW 13 0.00 0.00
KILGENEV10 Geneva Southampton Drive 04/28 14:36:06 72.0 48.0 42 0 North 0 30.10 0.00
KILSTCHA8 St. Charles Ronzheimer Ave. & S. Tyler Rd. 04/28 14:40:09 64.1 41.0 43 5 North 10 30.03 0.00
KILGENEV9 Geneva Saint Andrews Circle 04/28 14:36:01 65.3 44.0 46 0 North 0 30.11 0.00
KILGENEV3 Geneva Mill Creek (NE) 04/28 14:40:09 66.0 42.0 42 0 NW 12 30.05 0.00
KILSTCHA1 St Charles CamptonHillsWeather.com Central Kane County 04/28 14:40:16 63.9 43.0 47 2 North 5 30.06 0.00
KILGENEV7 Geneva Eldorado Drive 04/28 14:35:40 66.4 44.0 44 0 North 0 29.98 0.00
KILSOUTH5 South Elgin Concord Park 04/28 14:35:55 64.8 44.0 46 5 NE 0 29.80 0.00
KILGENEV2 Geneva Mill Creek 04/28 14:38:29 63.4 42.0 45 4 NNE 7 30.00 0.00
KILBATAV7 Batavia Charleston Street 04/28 14:36:02 65.5 44.0 45 0 North 0 30.12 0.00
KILBATAV1 Batavia Tri-Cities on the Fox River 04/28 14:40:00 65.5 38.0 36 2 West 11 30.06 0.00
KILELGIN16 Elgin Providence Subdivision 04/28 14:36:16 72.7 43.0 34 1 WSW 0 29.81 0.00
KILELBUR10 Elburn Prairie Valley North 04/28 14:40:00 66.9 42.0 40 4 NNE 7 30.13 0.00
KILELBUR5 Elburn Prairie Highlands 04/28 14:40:16 63.3 44.0 49 0 NE 7 30.05 0.00
KILWESTC12 West Chicago Woodland Avenue 04/28 14:36:17 64.0 45.0 50 0 North 0 30.12 0.00
MD7322 Elburn APRSWXNET 04/28 14:05:00 63.0 41.0 45 2 NNE 8 30.06 0.00
KILBATAV3 Batavia West Batavia 04/28 14:30:17 62.3 43.0 50 6 NNW 0 30.02 0.00
KILELBUR6 Elburn Columbine Square 04/28 14:37:15 62.5 41.0 46 6 NW 9 30.00 0.00
KILBATAV5 Batavia Fermi National Accelerator Laboratory 04/28 14:32:46 63.3 40.0 43 2 NE 7 30.00 0.00
KILELBUR8 Elburn Columbine 04/28 14:37:45 65.8 43.0 43 4 NW 12 30.02 0.00
KILWESTC5 West Chicago THEBROWNHOUSE.ORG 04/28 14:40:13 62.9 34.0 34 0 West 0 30.03 0.00
KILWESTC8 West Chicago Ingalton Hills Estates 04/28 14:40:13 65.0 39.0 38 1 NE 1 30.05 0.00
KILNORTH11 North Aurora Waterford Oaks 04/28 14:40:14 64.7 42.0 44 2 West 9 30.03 0.00
KILELGIN10 Elgin Wing Park 04/28 14:40:14 67.4 41.0 38 3 NNW 6 30.05 0.00
MUP188 Elburn MesoWest 04/28 10:45:00 57.0 0.0 0 0 North 0 0.00 0.00
KDPA Chicago DuPage Official Station 04/28 13:52:00 62.0 38.0 41 9 North --- 30.07 ---
KARR Aurora Official Station 04/28 13:52:00 62.0 36.0 38 7 Variable --- 30.08 ---
KDKB DeKalb Official Station 04/28 14:15:00 60.0 36.0 40 4 North --- 30.07 ---
KORD Chicago Official Station 04/28 13:51:00 56.0 36.0 47 9 ENE --- 30.09 ---
Full Advisory Text
No Warnings

Ambient Weather and Weather Underground
 Never base important decisions on this or any weather information obtained from the Internet
Updated Automatically by Ambient Weather's Virtual Weather Station  V13.01